Location: Niagara
(43.2500°N, 79.0670°W)
Time: 01:00:11
(UTC-05:00)

Envisat - Pass Details

Date: 09 October 2017
Orbit: 764 x 766 km, 98.2° (Epoch: 10 December)

Event Time Altitude Azimuth Distance (km) Brightness Sun altitude
Exits shadow 20:04:23 25° 89° (E) 1,520 3.9 -15.6°
Maximum altitude 20:05:37 28° 66° (ENE) 1,427 3.9 -15.9°
Drops below altitude 10° 20:09:52 10° 9° (N) 2,314 5.5 -16.6°
Sets 20:12:27 0° 358° (N) 3,245 6.4 -17.1°
